Regional Weather Roundup
Issued by NWS

Home | Current Version | Previous Version | Graphics & Text | Print | Product List | Glossary On
Versions: 1 2 3 4 5 6 7 8 9 10 11 12 13 14 15 16 17 18 19 20 21 22 23 24 25 26 27 28 29 30 31 32 33 34 35 36 37 38 39 40 41 42 43 44 45 46 47 48 49 50
836
ASUS44 KJAN 221403
RWRMS

MISSISSIPPI HOURLY WEATHER ROUNDUP
NATIONAL WEATHER SERVICE JACKSON MS
900 AM CDT TUE APR 22 2014

NOTE: "FAIR: INDICATES FEW OR NO CLOUDS BELOW 12,000 FEET WITH NO
SIGNIFICANT WEATHER AND/OR OBSTRUCTIONS TO VISIBILITY.

MSZ001>002-007>008-010>013-018>021-025>028-034>036-221500-
NORTHWEST MISSISSIPPI

CITY           SKY/WX    TMP DP  RH WIND       PRES   REMARKS
CLARKSDALE       N/A     66  66 100 NW13      29.96R
CLEVELAND      CLOUDY    66  64  94 CALM      29.95R
GREENWOOD      LGT RAIN  64  62  93 N3        29.95R FOG
GREENVILLE     MOSUNNY   68  64  87 NE7       29.94S FOG
GRENADA        CLOUDY    63  61  94 CALM      29.96R
OLIVE BRANCH   PTSUNNY   63  63 100 NW8       29.94S
OXFORD         FAIR      63  61  94 NW3       29.95F
TUNICA         PTSUNNY   64  61  88 NW9       29.95S
$$

MSZ003>006-009-014>017-022>024-029>033-037>039-221500-
NORTHEAST MISSISSIPPI

CITY           SKY/WX    TMP DP  RH WIND       PRES   REMARKS
BELMONT        DRIZZLE   63  61  96 CALM      29.93S
COLUMBUS AFB   CLOUDY    64  64 100 S6        29.94S
CORINTH        FAIR      64  59  82 CALM      29.92S
GOLDN TRIANGLE PTSUNNY   63  57  82 S5        29.97S
STARKVILLE     CLOUDY    61  61 100 CALM      29.95S FOG
TUPELO         CLOUDY    64  61  90 CALM      29.94R
$$

MSZ040-058-221500-
CENTRAL MISSISSIPPI

CITY           SKY/WX    TMP DP  RH WIND       PRES   REMARKS
JACKSON INTL   CLOUDY    64  62  93 SW6       29.94F
JACKSON HAWKNS CLOUDY    65  61  87 SW6       29.95S FOG
MERIDIAN KEY   CLOUDY    61  59  93 S5        29.95F
MERIDIAN NAS   LGT RAIN  62  60  93 SW3       29.95F FOG
RAYMOND        CLOUDY    64  59  82 W5        29.95S HAZE
VICKSBURG      LGT RAIN  67  63  87 NW9       29.95R
$$

MSZ059>079-221500-
SOUTH MISSISSIPPI

CITY           SKY/WX    TMP DP  RH WIND       PRES   REMARKS
BROOKHAVEN     CLOUDY    64  64 100 SW6       29.97F FOG
COLUMBIA       CLOUDY    64  63  94 MISG      29.96F FOG
HATTIESBURG      N/A     65  60  84 SW6       29.98
MCCOMB         CLOUDY    64  62  93 SW8       29.97F FOG
NATCHEZ        CLOUDY    66  63  88 W8        29.97R
PINE BELT      CLOUDY    63  57  82 SW5       29.98S
$$

MSZ080>082-221500-
COASTAL MISSISSIPPI

CITY           SKY/WX    TMP DP  RH WIND       PRES   REMARKS
BAY ST LOUIS   PTSUNNY  N/A N/A N/A SW7       29.99F
BILOXI         MOSUNNY   69  65  86 VRB3      29.99F
PASCAGOULA     NOT AVBL
GULFPORT       MOSUNNY   69  63  81 VRB6      29.99S HAZE
$$



USA.gov is the U.S. government's official web portal to all federal, state and local government web resources and services.